This demonstration page uses our WeatherBlox Daily Observations layout. Learn more.

Left ArrowRight Arrow

44.8408, -93.29828

Hourly Observations for February 29, 2020

Temp ( °F °C ) Dew Point ( °F °C ) Humidity (%) Winds ( mph kmh ) Pressure ( in mb ) Visibility ( mi km ) Precip ( " mm )
12:53 am 00:53 Clear 17 -8.3 9 -12.8 70 70 WSW 3 6 30.22 1023 10 16 0.00 0.00
1:53 am 01:53 Clear 17 -8.3 10 -12.2 74 74 SW 5 7 30.21 1023 10 16 0.00 0.00
2:53 am 02:53 Clear 16 -8.9 11 -11.7 80 80 SW 7 11 30.19 1022 10 16 0.00 0.00
3:26 am 03:26 Mostly Cloudy 16 -8.9 11 -11.7 80 80 SW 7 11 30.22 1023 10 16 0.00 0.00
3:34 am 03:34 Mostly Cloudy 16 -8.9 12 -11.1 84 84 SW 5 7 30.21 1023 10 16 0.00 0.00
3:53 am 03:53 Cloudy 17 -8.3 12 -11.1 80 80 SSW 3 6 30.17 1022 10 16 0.00 0.00
4:53 am 04:53 Cloudy 17 -8.3 14 -10 88 88 SW 8 13 30.16 1021 7 11 0.00 0.00
5:53 am 05:53 Cloudy 17 -8.3 14 -10 88 88 SSW 7 11 30.15 1021 7 11 0.00 0.00
6:53 am 06:53 Cloudy 18 -7.8 14 -10 84 84 SSW 9 15 30.14 1021 8 13 0.00 0.00
7:53 am 07:53 Cloudy with Mist and Fog 19 -7.2 16 -8.9 88 88 S 10 17 30.12 1020 4 6 0.00 0.00
8:03 am 08:03 Cloudy with Mist and Fog 19 -7.2 17 -8.3 92 92 SSE 7 11 30.14 1021 3 4 0.00 0.00
8:42 am 08:42 Cloudy with Mist and Fog 20 -6.7 17 -8.3 89 89 SSE 7 11 30.13 1020 2 3 0.00 0.00
8:53 am 08:53 Cloudy with Mist and Fog 20 -6.7 18 -7.8 92 92 S 6 9 30.10 1019 2 3 0.00 0.00
9:16 am 09:16 Cloudy with Mist and Fog 21 -6.1 19 -7.2 92 92 SSE 6 9 30.12 1020 3 5 0.00 0.00
9:51 am 09:51 Cloudy with Mist and Fog 21 -6 19 -7 93 93 SSE 8 13 30.11 1020 5 8 0.00 0.00
9:53 am 09:53 Cloudy with Mist and Fog 23 -5 20 -6.7 88 88 SSE 9 15 30.08 1019 5 8 0.00 0.00
10:31 am 10:31 Mostly Cloudy with Haze 26 -3.3 21 -6.1 81 81 S 10 17 30.08 1019 6 10 0.00 0.00
10:53 am 10:53 Partly Cloudy 27 -2.8 21 -6.1 78 78 SSE 12 19 30.05 1018 7 11 0.00 0.00
11:53 am 11:53 Mostly Sunny 33 0.6 23 -5 66 66 SSE 12 19 30.01 1016 10 16 0.00 0.00
12:53 pm 12:53 Mostly Sunny 35 1.7 24 -4.4 64 64 S 13 20 29.98 1015 10 16 0.00 0.00
1:53 pm 13:53 Mostly Sunny 37 2.8 26 -3.3 65 65 S 16 26 29.94 1014 10 16 0.00 0.00
2:53 pm 14:53 Mostly Sunny 38 3.3 27 -2.8 65 65 SE 15 24 29.91 1013 10 16 0.00 0.00
3:53 pm 15:53 Partly Cloudy 38 3.3 27 -2.8 65 65 SE 12 19 29.88 1012 10 16 0.00 0.00
4:53 pm 16:53 Mostly Cloudy 37 2.8 28 -2.2 70 70 SSE 15 24 29.88 1012 10 16 0.00 0.00
5:53 pm 17:53 Mostly Cloudy 36 2.2 28 -2.2 73 73 SSE 12 19 29.87 1012 10 16 0.00 0.00
6:53 pm 18:53 Partly Cloudy 35 1.7 28 -2.2 76 76 SSE 10 17 29.86 1011 10 16 0.00 0.00
7:53 pm 19:53 Mostly Cloudy 35 1.7 28 -2.2 76 76 SSE 10 17 29.85 1011 10 16 0.00 0.00
8:53 pm 20:53 Mostly Cloudy 34 1.1 28 -2.2 79 79 SSE 8 13 29.82 1010 10 16 0.00 0.00
9:53 pm 21:53 Mostly Cloudy 34 1.1 28 -2.2 79 79 SE 10 17 29.79 1009 10 16 0.00 0.00
10:53 pm 22:53 Mostly Cloudy 35 1.7 28 -2.2 76 76 SE 10 17 29.75 1007 10 16 0.00 0.00
11:53 pm 23:53 Mostly Cloudy 37 2.8 29 -1.7 73 73 SSE 13 20 29.70 1006 10 16 0.00 0.00

Powered by AerisWeather